Flag for India Weather past 2 weeks in Gurgaon, Haryana, India

Now
99 °F

Haze.


Feels Like: 103 °F
Forecast: 89 / 106 °F
Wind: 12 mph from Northwest

Location: New Delhi Palam Airport

Current Time: Jul 10, 2014 at 11:43:49 AM

Latest Report: Jul 10, 2014 at 11:00 AM


Visibility: 3 mi

Pressure: 29.56 "Hg

Humidity: 35%

Dew point: 66 °F

Location of GurgaonLocation

Historic Weather in Gurgaon — Graph

°F

Gurgaon temperature yesterday

Maximum temperature yesterday: 106 °F (at 5:30 PM)
Minimum temperature yesterday: 86 °F (at 5:00 AM)
Average temperature yesterday: 95 °F

Past Weeks' High & Low Weather Summary

 TemperatureHumidityPressure
High106 °F (Jun 27, 3:00 PM)94% (Jul 3, 3:00 AM)29.71 "Hg (Jul 3, 3:00 AM)
Low79 °F (Jul 2, 1:30 AM)26% (Jun 27, 3:30 PM)29.42 "Hg (Jul 9, 5:30 PM)
Average91 °F56%29.55 "Hg
* Reported Jun 25 9:30 AM — Jul 10 10:00 AM, Gurgaon, Weather by CustomWeather, © 2014

Note: Actual official high and low records may vary slightly from our data, if they occured in-between our weather recording intervals... More about our weather records

Advertising

Gurgaon weather history for previous 24 hours

 ConditionsComfort  
Time TempWeatherWind HumidityBarometerVisibility
10:00 AM
Jul 10
99 °FHaze.12 mph33%29.56 "Hg3 mi
9:30 AM97 °FHaze.15 mph34%29.56 "Hg3 mi
9:00 AM95 °FHaze.15 mph34%29.56 "Hg2 mi
8:30 AM93 °FHaze.14 mph36%29.56 "Hg2 mi
8:00 AM91 °FHaze.10 mph36%29.53 "Hg2 mi
7:30 AM91 °FHaze.10 mph36%29.53 "Hg2 mi
6:30 AM88 °FHaze.8 mph59%29.53 "Hg2 mi
6:00 AM88 °FHaze.6 mph59%29.53 "Hg2 mi
5:30 AM88 °FHaze.6 mph55%29.53 "Hg2 mi
5:00 AM88 °FHaze.6 mph59%29.53 "Hg2 mi
4:30 AM88 °FHaze.7 mph59%29.50 "Hg2 mi
4:00 AM91 °FHaze.6 mph52%29.50 "Hg2 mi
3:30 AM91 °FHaze.5 mph52%29.50 "Hg2 mi
3:00 AM93 °FHaze.3 mph49%29.50 "Hg2 mi
2:30 AM93 °FHaze.5 mph49%29.50 "Hg2 mi
2:00 AM93 °FHaze.5 mph49%29.50 "Hg2 mi
1:30 AM95 °FHaze.5 mph44%29.50 "Hg2 mi
1:00 AM95 °FHaze.No wind44%29.50 "Hg2 mi
12:30 AM95 °FHaze.No wind44%29.50 "Hg2 mi
12:00 AM95 °FHaze.3 mph41%29.50 "Hg2 mi
11:30 PM
Jul 9
95 °FHaze.3 mph41%29.50 "Hg2 mi
11:00 PM97 °FHaze.6 mph37%29.47 "Hg2 mi
10:30 PM97 °FHaze.5 mph34%29.47 "Hg2 mi
10:00 PM97 °FHaze.6 mph37%29.47 "Hg2 mi
9:30 PM97 °FHaze.3 mph37%29.47 "Hg2 mi
9:00 PM99 °FHaze.5 mph35%29.47 "Hg2 mi
8:30 PM99 °FHaze.5 mph31%29.45 "Hg2 mi
8:00 PM99 °FHaze.6 mph31%29.45 "Hg2 mi
7:30 PM102 °FHaze.6 mph27%29.45 "Hg2 mi
7:00 PM102 °FScattered clouds.9 mph27%29.45 "Hg2 mi
6:30 PM104 °FScattered clouds.9 mph28%29.45 "Hg2 mi
5:30 PM106 °FScattered clouds.9 mph30%29.42 "Hg2 mi
1:30 PM102 °FHaze.9 mph33%29.50 "Hg2 mi
12:30 PM100 °FHaze.12 mph35%29.53 "Hg2 mi
11:30 AM100 °FHaze.12 mph35%29.53 "Hg2 mi
Weather by CustomWeather, © 2014

See weather overviewHow to use our weather pages